Flag for Latvia Weather past 2 weeks in Liepāja, Latvia

Now
68 °F

Passing clouds.


Feels Like: 68 °F
Forecast: 46 / 66 °F
Wind: 5 mph from Northeast

Location: Liepaja International Airport


UV Index: 3 (Moderate)

Visibility: N/A


Pressure: 30.18 "Hg

Humidity: 46%

Dew point: 46 °F

Location of LiepājaLocation

Historic Weather in Liepāja

°F

Liepāja temperature yesterday

Maximum temperature yesterday: 61 °F (at 2:20 PM)
Minimum temperature yesterday: 41 °F (at 5:50 AM)
Average temperature yesterday: 51 °F

Past Weeks' High & Low Weather Summary

 TemperatureHumidityPressure
High70 °F (Apr 19, 3:20 PM)100% (Apr 6, 5:50 PM)30.36 "Hg (Apr 6, 5:50 PM)
Low27 °F (Apr 5, 5:50 AM)32% (Apr 16, 2:50 PM)29.47 "Hg (Apr 14, 6:20 AM)
Average44 °F77%29.95 "Hg
* Reported Apr 4 5:20 PM — Apr 19 5:50 PM, Liepāja, Weather by CustomWeather, © 2014

Note: Actual official high and low records may vary slightly from our data, if they occured in-between our weather recording intervals... More about our weather records

Advertising

Historic Weather Conditions — Data for Previous 24 hours

 ConditionsComfort  
Time TempWeatherWind HumidityBarometerVisibility
5:50 PM
Apr 19
70 °FPassing clouds.5 mph43%30.18 "HgN/A
5:20 PM68 °FPassing clouds.5 mph46%30.18 "HgN/A
4:50 PM68 °FPassing clouds.5 mph46%30.21 "HgN/A
4:20 PM70 °FSunny.5 mph43%30.21 "Hg10 mi
3:50 PM70 °FPassing clouds.8 mph43%30.21 "HgN/A
3:20 PM70 °FPassing clouds.9 mph43%30.21 "HgN/A
2:50 PM68 °FPassing clouds.8 mph46%30.21 "HgN/A
2:20 PM68 °FPassing clouds.7 mph49%30.21 "HgN/A
1:50 PM68 °FPassing clouds.9 mph49%30.21 "HgN/A
1:20 PM68 °FPassing clouds.9 mph53%30.24 "HgN/A
12:50 PM66 °FPartly sunny.5 mph49%30.24 "HgN/A
12:20 PM66 °FPassing clouds.7 mph52%30.24 "HgN/A
11:50 AM64 °FSunny.7 mph56%30.24 "Hg10 mi
11:20 AM63 °FPassing clouds.7 mph56%30.24 "HgN/A
10:50 AM61 °FPassing clouds.6 mph59%30.24 "HgN/A
10:20 AM59 °FSunny.5 mph59%30.24 "Hg10 mi
9:50 AM57 °FSunny.7 mph59%30.21 "Hg10 mi
9:20 AM55 °FSunny.7 mph59%30.21 "Hg10 mi
8:50 AM54 °FSunny.7 mph63%30.21 "Hg10 mi
8:20 AM50 °FSunny.5 mph71%30.21 "Hg10 mi
7:50 AM45 °FClear.3 mph81%30.18 "Hg10 mi
7:20 AM43 °FClear.2 mph81%30.18 "Hg10 mi
6:50 AM43 °FClear.2 mph81%30.18 "Hg10 mi
6:20 AM43 °FClear.3 mph81%30.18 "Hg10 mi
5:50 AM43 °FClear.3 mph76%30.18 "Hg10 mi
5:20 AM45 °FClear.3 mph76%30.18 "Hg10 mi
4:50 AM43 °FClear.3 mph76%30.18 "Hg10 mi
4:20 AM43 °FHaze.2 mph76%30.18 "HgN/A
3:50 AM46 °FClear.2 mph66%30.15 "Hg10 mi
3:20 AM45 °FClear.2 mph76%30.15 "Hg10 mi
2:50 AM46 °FHaze.3 mph71%30.15 "HgN/A
2:20 AM46 °FClear.2 mph71%30.15 "Hg10 mi
1:50 AM48 °FClear.5 mph62%30.15 "Hg10 mi
1:20 AM50 °FClear.3 mph58%30.12 "Hg10 mi
12:50 AM50 °FHaze.3 mph58%30.12 "HgN/A
12:20 AM50 °FClear.5 mph58%30.12 "Hg10 mi
11:50 PM
Apr 18
50 °FClear.5 mph58%30.09 "Hg10 mi
11:20 PM52 °FClear.6 mph54%30.09 "Hg10 mi
10:50 PM52 °FClear.5 mph54%30.09 "Hg10 mi
10:20 PM54 °FSunny.6 mph47%30.07 "Hg10 mi
9:50 PM54 °FSunny.5 mph51%30.07 "Hg10 mi
9:20 PM55 °FSunny.6 mph47%30.07 "Hg10 mi
8:50 PM54 °FSunny.3 mph54%30.04 "Hg10 mi
8:20 PM55 °FSunny.3 mph47%30.04 "Hg10 mi
7:50 PM57 °FSunny.2 mph44%30.01 "Hg10 mi
7:20 PM59 °FSunny.No wind39%30.01 "Hg10 mi
6:50 PM59 °FSunny.2 mph39%29.98 "Hg10 mi
6:20 PM59 °FSunny.5 mph39%29.98 "Hg10 mi
Weather by CustomWeather, © 2014

See weather overview